owner,sensor,date,latitude,longitude,vertical_datum,sea_water_practical_salinity,qcFlag 
TCOON,ioos:station:TCOON:076:1,2011-12-01T00:30:00Z,27.8918,-97.6105,0.0,5.8,1111122 
TCOON,ioos:station:TCOON:076:1,2011-12-01T01:00:00Z,27.8918,-97.6105,0.0,5.9,1111122 
TCOON,ioos:station:TCOON:076:1,2011-12-01T01:30:00Z,27.8918,-97.6105,0.0,5.6,1111122 
TCOON,ioos:station:TCOON:076:1,2011-12-01T02:00:00Z,27.8918,-97.6105,0.0,5.7,1111122 
TCOON,ioos:station:TCOON:076:1,2011-12-01T02:30:00Z,27.8918,-97.6105,0.0,5.7,1111122 
TCOON,ioos:station:TCOON:076:1,2011-12-01T03:00:00Z,27.8918,-97.6105,0.0,5.7,1111122 
TCOON,ioos:station:TCOON:076:1,2011-12-01T03:30:00Z,27.8918,-97.6105,0.0,5.7,1111122 
TCOON,ioos:station:TCOON:076:1,2011-12-01T04:00:00Z,27.8918,-97.6105,0.0,5.7,1111122 
TCOON,ioos:station:TCOON:076:1,2011-12-01T04:30:00Z,27.8918,-97.6105,0.0,5.7,1111122 
TCOON,ioos:station:TCOON:076:1,2011-12-01T05:00:00Z,27.8918,-97.6105,0.0,5.6,1111122 
TCOON,ioos:station:TCOON:076:1,2011-12-01T05:30:00Z,27.8918,-97.6105,0.0,5.8,1111122 
TCOON,ioos:station:TCOON:076:1,2011-12-01T06:00:00Z,27.8918,-97.6105,0.0,5.5,1111122 
TCOON,ioos:station:TCOON:076:1,2011-12-01T06:30:00Z,27.8918,-97.6105,0.0,5.7,1111122 
TCOON,ioos:station:TCOON:076:1,2011-12-01T07:00:00Z,27.8918,-97.6105,0.0,5.5,1111122 
TCOON,ioos:station:TCOON:076:1,2011-12-01T07:30:00Z,27.8918,-97.6105,0.0,5.3,1111122 
TCOON,ioos:station:TCOON:076:1,2011-12-01T08:00:00Z,27.8918,-97.6105,0.0,5.2,1111122 
TCOON,ioos:station:TCOON:076:1,2011-12-01T09:00:00Z,27.8918,-97.6105,0.0,4.8,1111122 
TCOON,ioos:station:TCOON:076:1,2011-12-01T09:30:00Z,27.8918,-97.6105,0.0,4.8,1111122 
TCOON,ioos:station:TCOON:076:1,2011-12-01T10:00:00Z,27.8918,-97.6105,0.0,4.7,1111122 
TCOON,ioos:station:TCOON:076:1,2011-12-01T10:30:00Z,27.8918,-97.6105,0.0,4.7,1111122 
TCOON,ioos:station:TCOON:076:1,2011-12-01T11:00:00Z,27.8918,-97.6105,0.0,4.8,1111122 
TCOON,ioos:station:TCOON:076:1,2011-12-01T11:30:00Z,27.8918,-97.6105,0.0,4.8,1111122 
TCOON,ioos:station:TCOON:076:1,2011-12-01T12:00:00Z,27.8918,-97.6105,0.0,4.7,1111122 
TCOON,ioos:station:TCOON:076:1,2011-12-01T13:30:00Z,27.8918,-97.6105,0.0,4.8,1111122 
TCOON,ioos:station:TCOON:076:1,2011-12-01T14:00:00Z,27.8918,-97.6105,0.0,4.8,1111122 
TCOON,ioos:station:TCOON:076:1,2011-12-01T15:00:00Z,27.8918,-97.6105,0.0,4.8,1111122 
TCOON,ioos:station:TCOON:076:1,2011-12-01T15:30:00Z,27.8918,-97.6105,0.0,4.8,1111122 
TCOON,ioos:station:TCOON:076:1,2011-12-01T16:00:00Z,27.8918,-97.6105,0.0,4.8,1111122 
TCOON,ioos:station:TCOON:076:1,2011-12-01T17:00:00Z,27.8918,-97.6105,0.0,3.3,1111122 
TCOON,ioos:station:TCOON:076:1,2011-12-01T18:00:00Z,27.8918,-97.6105,0.0,5.5,1111122 
TCOON,ioos:station:TCOON:076:1,2011-12-01T19:00:00Z,27.8918,-97.6105,0.0,5.8,1111122 
TCOON,ioos:station:TCOON:076:1,2011-12-01T19:30:00Z,27.8918,-97.6105,0.0,6.0,1111122 
TCOON,ioos:station:TCOON:076:1,2011-12-01T20:00:00Z,27.8918,-97.6105,0.0,6.0,1111122 
TCOON,ioos:station:TCOON:076:1,2011-12-01T20:30:00Z,27.8918,-97.6105,0.0,6.0,1111122 
TCOON,ioos:station:TCOON:076:1,2011-12-01T21:00:00Z,27.8918,-97.6105,0.0,6.2,1111122 
TCOON,ioos:station:TCOON:076:1,2011-12-01T21:30:00Z,27.8918,-97.6105,0.0,6.4,1111122 
TCOON,ioos:station:TCOON:076:1,2011-12-01T22:00:00Z,27.8918,-97.6105,0.0,6.4,1111122 
TCOON,ioos:station:TCOON:076:1,2011-12-01T22:30:00Z,27.8918,-97.6105,0.0,6.4,1111122 
TCOON,ioos:station:TCOON:076:1,2011-12-01T23:00:00Z,27.8918,-97.6105,0.0,6.4,1111122 
TCOON,ioos:station:TCOON:076:1,2011-12-01T23:30:00Z,27.8918,-97.6105,0.0,6.5,1111122 
TCOON,ioos:station:TCOON:076:1,2011-12-02T00:00:00Z,27.8918,-97.6105,0.0,6.4,1111122 
TCOON,ioos:station:TCOON:076:1,2011-12-02T00:30:00Z,27.8918,-97.6105,0.0,6.2,1111122 
TCOON,ioos:station:TCOON:076:1,2011-12-02T01:00:00Z,27.8918,-97.6105,0.0,6.2,1111122 
TCOON,ioos:station:TCOON:076:1,2011-12-02T02:00:00Z,27.8918,-97.6105,0.0,5.7,1111122 
TCOON,ioos:station:TCOON:076:1,2011-12-02T02:30:00Z,27.8918,-97.6105,0.0,5.6,1111122 
TCOON,ioos:station:TCOON:076:1,2011-12-02T03:00:00Z,27.8918,-97.6105,0.0,5.4,1111122 
TCOON,ioos:station:TCOON:076:1,2011-12-02T03:30:00Z,27.8918,-97.6105,0.0,5.2,1111122 
TCOON,ioos:station:TCOON:076:1,2011-12-02T04:00:00Z,27.8918,-97.6105,0.0,5.1,1111122 
TCOON,ioos:station:TCOON:076:1,2011-12-02T04:30:00Z,27.8918,-97.6105,0.0,5.1,1111122 
TCOON,ioos:station:TCOON:076:1,2011-12-02T05:00:00Z,27.8918,-97.6105,0.0,5.2,1111122 
TCOON,ioos:station:TCOON:076:1,2011-12-02T05:30:00Z,27.8918,-97.6105,0.0,5.5,1111122 
TCOON,ioos:station:TCOON:076:1,2011-12-02T06:00:00Z,27.8918,-97.6105,0.0,5.9,1111122 
TCOON,ioos:station:TCOON:076:1,2011-12-02T06:30:00Z,27.8918,-97.6105,0.0,6.1,1111122 
TCOON,ioos:station:TCOON:076:1,2011-12-02T07:00:00Z,27.8918,-97.6105,0.0,6.1,1111122 
TCOON,ioos:station:TCOON:076:1,2011-12-02T07:30:00Z,27.8918,-97.6105,0.0,6.1,1111122 
TCOON,ioos:station:TCOON:076:1,2011-12-02T08:00:00Z,27.8918,-97.6105,0.0,6.2,1111122 
TCOON,ioos:station:TCOON:076:1,2011-12-02T08:30:00Z,27.8918,-97.6105,0.0,6.2,1111122 
TCOON,ioos:station:TCOON:076:1,2011-12-02T09:00:00Z,27.8918,-97.6105,0.0,6.1,1111122 
TCOON,ioos:station:TCOON:076:1,2011-12-02T09:30:00Z,27.8918,-97.6105,0.0,6.0,1111122 
TCOON,ioos:station:TCOON:076:1,2011-12-02T10:00:00Z,27.8918,-97.6105,0.0,6.1,1111122 
TCOON,ioos:station:TCOON:076:1,2011-12-02T10:30:00Z,27.8918,-97.6105,0.0,4.8,1111122 
TCOON,ioos:station:TCOON:076:1,2011-12-02T11:00:00Z,27.8918,-97.6105,0.0,4.7,1111122 
TCOON,ioos:station:TCOON:076:1,2011-12-02T11:30:00Z,27.8918,-97.6105,0.0,4.8,1111122 
TCOON,ioos:station:TCOON:076:1,2011-12-02T12:00:00Z,27.8918,-97.6105,0.0,4.9,1111122 
TCOON,ioos:station:TCOON:076:1,2011-12-02T12:30:00Z,27.8918,-97.6105,0.0,4.8,1111122 
TCOON,ioos:station:TCOON:076:1,2011-12-02T13:00:00Z,27.8918,-97.6105,0.0,4.8,1111122 
TCOON,ioos:station:TCOON:076:1,2011-12-02T13:30:00Z,27.8918,-97.6105,0.0,4.8,1111122 
TCOON,ioos:station:TCOON:076:1,2011-12-02T14:00:00Z,27.8918,-97.6105,0.0,5.7,1111122 
TCOON,ioos:station:TCOON:076:1,2011-12-02T16:00:00Z,27.8918,-97.6105,0.0,7.5,1111122 
TCOON,ioos:station:TCOON:076:1,2011-12-02T17:00:00Z,27.8918,-97.6105,0.0,6.7,1111122 
TCOON,ioos:station:TCOON:076:1,2011-12-02T19:00:00Z,27.8918,-97.6105,0.0,6.1,1111122 
TCOON,ioos:station:TCOON:076:1,2011-12-02T19:30:00Z,27.8918,-97.6105,0.0,6.3,1111122 
TCOON,ioos:station:TCOON:076:1,2011-12-02T20:00:00Z,27.8918,-97.6105,0.0,6.3,1111122 
TCOON,ioos:station:TCOON:076:1,2011-12-02T20:30:00Z,27.8918,-97.6105,0.0,6.3,1111122 
TCOON,ioos:station:TCOON:076:1,2011-12-02T21:30:00Z,27.8918,-97.6105,0.0,6.3,1111122 
TCOON,ioos:station:TCOON:076:1,2011-12-02T22:00:00Z,27.8918,-97.6105,0.0,6.4,1111122 
TCOON,ioos:station:TCOON:076:1,2011-12-02T23:00:00Z,27.8918,-97.6105,0.0,6.6,1111122 
TCOON,ioos:station:TCOON:076:1,2011-12-03T00:00:00Z,27.8918,-97.6105,0.0,6.5,1111122 
TCOON,ioos:station:TCOON:076:1,2011-12-03T00:30:00Z,27.8918,-97.6105,0.0,6.5,1111122 
TCOON,ioos:station:TCOON:076:1,2011-12-03T01:00:00Z,27.8918,-97.6105,0.0,6.4,1111122 
TCOON,ioos:station:TCOON:076:1,2011-12-03T01:30:00Z,27.8918,-97.6105,0.0,6.3,1111122 
TCOON,ioos:station:TCOON:076:1,2011-12-03T02:00:00Z,27.8918,-97.6105,0.0,6.2,1111122 
TCOON,ioos:station:TCOON:076:1,2011-12-03T02:30:00Z,27.8918,-97.6105,0.0,6.0,1111122 
TCOON,ioos:station:TCOON:076:1,2011-12-03T03:00:00Z,27.8918,-97.6105,0.0,6.1,1111122 
TCOON,ioos:station:TCOON:076:1,2011-12-03T03:30:00Z,27.8918,-97.6105,0.0,6.1,1111122 
TCOON,ioos:station:TCOON:076:1,2011-12-03T04:00:00Z,27.8918,-97.6105,0.0,6.2,1111122 
TCOON,ioos:station:TCOON:076:1,2011-12-03T04:30:00Z,27.8918,-97.6105,0.0,6.4,1111122 
TCOON,ioos:station:TCOON:076:1,2011-12-03T05:00:00Z,27.8918,-97.6105,0.0,6.6,1111122 
TCOON,ioos:station:TCOON:076:1,2011-12-03T05:30:00Z,27.8918,-97.6105,0.0,6.5,1111122 
TCOON,ioos:station:TCOON:076:1,2011-12-03T06:00:00Z,27.8918,-97.6105,0.0,6.5,1111122 
TCOON,ioos:station:TCOON:076:1,2011-12-03T06:30:00Z,27.8918,-97.6105,0.0,6.7,1111122 
TCOON,ioos:station:TCOON:076:1,2011-12-03T07:30:00Z,27.8918,-97.6105,0.0,6.5,1111122 
TCOON,ioos:station:TCOON:076:1,2011-12-03T08:00:00Z,27.8918,-97.6105,0.0,6.6,1111122 
TCOON,ioos:station:TCOON:076:1,2011-12-03T08:30:00Z,27.8918,-97.6105,0.0,4.3,1111122 
TCOON,ioos:station:TCOON:076:1,2011-12-03T09:00:00Z,27.8918,-97.6105,0.0,6.7,1111122 
TCOON,ioos:station:TCOON:076:1,2011-12-03T09:30:00Z,27.8918,-97.6105,0.0,6.7,1111122 
TCOON,ioos:station:TCOON:076:1,2011-12-03T10:00:00Z,27.8918,-97.6105,0.0,6.7,1111122 
TCOON,ioos:station:TCOON:076:1,2011-12-03T10:30:00Z,27.8918,-97.6105,0.0,6.8,1111122 
TCOON,ioos:station:TCOON:076:1,2011-12-03T11:00:00Z,27.8918,-97.6105,0.0,6.7,1111122 
TCOON,ioos:station:TCOON:076:1,2011-12-03T11:30:00Z,27.8918,-97.6105,0.0,6.2,1111122 
TCOON,ioos:station:TCOON:076:1,2011-12-03T12:00:00Z,27.8918,-97.6105,0.0,6.2,1111122 
TCOON,ioos:station:TCOON:076:1,2011-12-03T12:30:00Z,27.8918,-97.6105,0.0,6.2,1111122 
TCOON,ioos:station:TCOON:076:1,2011-12-03T13:30:00Z,27.8918,-97.6105,0.0,5.8,1111122 
TCOON,ioos:station:TCOON:076:1,2011-12-03T14:00:00Z,27.8918,-97.6105,0.0,5.8,1111122 
TCOON,ioos:station:TCOON:076:1,2011-12-03T14:30:00Z,27.8918,-97.6105,0.0,5.8,1111122 
TCOON,ioos:station:TCOON:076:1,2011-12-03T15:30:00Z,27.8918,-97.6105,0.0,5.7,1111122 
TCOON,ioos:station:TCOON:076:1,2011-12-03T16:00:00Z,27.8918,-97.6105,0.0,5.6,1111122 
TCOON,ioos:station:TCOON:076:1,2011-12-03T16:30:00Z,27.8918,-97.6105,0.0,5.6,1111122 
TCOON,ioos:station:TCOON:076:1,2011-12-03T17:30:00Z,27.8918,-97.6105,0.0,5.6,1111122 
TCOON,ioos:station:TCOON:076:1,2011-12-03T18:00:00Z,27.8918,-97.6105,0.0,5.7,1111122 
TCOON,ioos:station:TCOON:076:1,2011-12-03T18:30:00Z,27.8918,-97.6105,0.0,5.7,1111122 
TCOON,ioos:station:TCOON:076:1,2011-12-03T19:00:00Z,27.8918,-97.6105,0.0,5.8,1111122 
TCOON,ioos:station:TCOON:076:1,2011-12-03T20:30:00Z,27.8918,-97.6105,0.0,6.1,1111122 
TCOON,ioos:station:TCOON:076:1,2011-12-03T21:00:00Z,27.8918,-97.6105,0.0,6.4,1111122 
TCOON,ioos:station:TCOON:076:1,2011-12-03T21:30:00Z,27.8918,-97.6105,0.0,6.3,1111122 
TCOON,ioos:station:TCOON:076:1,2011-12-03T22:00:00Z,27.8918,-97.6105,0.0,6.5,1111122 
TCOON,ioos:station:TCOON:076:1,2011-12-03T23:00:00Z,27.8918,-97.6105,0.0,6.4,1111122 
TCOON,ioos:station:TCOON:076:1,2011-12-03T23:30:00Z,27.8918,-97.6105,0.0,6.2,1111122 
TCOON,ioos:station:TCOON:076:1,2011-12-04T00:00:00Z,27.8918,-97.6105,0.0,6.2,1111122 
TCOON,ioos:station:TCOON:076:1,2011-12-04T00:30:00Z,27.8918,-97.6105,0.0,6.1,1111122 
TCOON,ioos:station:TCOON:076:1,2011-12-04T01:00:00Z,27.8918,-97.6105,0.0,6.1,1111122 
TCOON,ioos:station:TCOON:076:1,2011-12-04T01:30:00Z,27.8918,-97.6105,0.0,6.0,1111122 
TCOON,ioos:station:TCOON:076:1,2011-12-04T02:00:00Z,27.8918,-97.6105,0.0,5.9,1111122 
TCOON,ioos:station:TCOON:076:1,2011-12-04T02:30:00Z,27.8918,-97.6105,0.0,5.9,1111122 
TCOON,ioos:station:TCOON:076:1,2011-12-04T03:00:00Z,27.8918,-97.6105,0.0,5.8,1111122 
TCOON,ioos:station:TCOON:076:1,2011-12-04T03:30:00Z,27.8918,-97.6105,0.0,5.7,1111122 
TCOON,ioos:station:TCOON:076:1,2011-12-04T04:30:00Z,27.8918,-97.6105,0.0,5.7,1111122 
TCOON,ioos:station:TCOON:076:1,2011-12-04T05:00:00Z,27.8918,-97.6105,0.0,5.6,1111122 
TCOON,ioos:station:TCOON:076:1,2011-12-04T05:30:00Z,27.8918,-97.6105,0.0,5.5,1111122 
TCOON,ioos:station:TCOON:076:1,2011-12-04T06:00:00Z,27.8918,-97.6105,0.0,5.6,1111122 
TCOON,ioos:station:TCOON:076:1,2011-12-04T06:30:00Z,27.8918,-97.6105,0.0,5.6,1111122 
TCOON,ioos:station:TCOON:076:1,2011-12-04T07:00:00Z,27.8918,-97.6105,0.0,5.7,1111122 
TCOON,ioos:station:TCOON:076:1,2011-12-04T07:30:00Z,27.8918,-97.6105,0.0,5.8,1111122 
TCOON,ioos:station:TCOON:076:1,2011-12-04T08:00:00Z,27.8918,-97.6105,0.0,5.6,1111122 
TCOON,ioos:station:TCOON:076:1,2011-12-04T08:30:00Z,27.8918,-97.6105,0.0,5.8,1111122 
TCOON,ioos:station:TCOON:076:1,2011-12-04T09:00:00Z,27.8918,-97.6105,0.0,5.6,1111122 
TCOON,ioos:station:TCOON:076:1,2011-12-04T09:30:00Z,27.8918,-97.6105,0.0,5.5,1111122 
TCOON,ioos:station:TCOON:076:1,2011-12-04T10:00:00Z,27.8918,-97.6105,0.0,5.4,1111122 
TCOON,ioos:station:TCOON:076:1,2011-12-04T10:30:00Z,27.8918,-97.6105,0.0,5.2,1111122 
TCOON,ioos:station:TCOON:076:1,2011-12-04T11:30:00Z,27.8918,-97.6105,0.0,5.5,1111122 
TCOON,ioos:station:TCOON:076:1,2011-12-04T12:00:00Z,27.8918,-97.6105,0.0,5.3,1111122 
TCOON,ioos:station:TCOON:076:1,2011-12-04T12:30:00Z,27.8918,-97.6105,0.0,5.4,1111122 
TCOON,ioos:station:TCOON:076:1,2011-12-04T13:00:00Z,27.8918,-97.6105,0.0,5.4,1111122 
TCOON,ioos:station:TCOON:076:1,2011-12-04T13:30:00Z,27.8918,-97.6105,0.0,5.3,1111122 
TCOON,ioos:station:TCOON:076:1,2011-12-04T14:00:00Z,27.8918,-97.6105,0.0,5.2,1111122 
TCOON,ioos:station:TCOON:076:1,2011-12-04T15:00:00Z,27.8918,-97.6105,0.0,5.0,1111122 
TCOON,ioos:station:TCOON:076:1,2011-12-04T15:30:00Z,27.8918,-97.6105,0.0,4.9,1111122 
TCOON,ioos:station:TCOON:076:1,2011-12-04T16:30:00Z,27.8918,-97.6105,0.0,4.9,1111122 
TCOON,ioos:station:TCOON:076:1,2011-12-04T17:30:00Z,27.8918,-97.6105,0.0,4.9,1111122 
TCOON,ioos:station:TCOON:076:1,2011-12-04T18:30:00Z,27.8918,-97.6105,0.0,4.8,1111122 
TCOON,ioos:station:TCOON:076:1,2011-12-04T19:00:00Z,27.8918,-97.6105,0.0,4.8,1111122 
TCOON,ioos:station:TCOON:076:1,2011-12-04T19:30:00Z,27.8918,-97.6105,0.0,4.8,1111122 
TCOON,ioos:station:TCOON:076:1,2011-12-04T20:00:00Z,27.8918,-97.6105,0.0,4.8,1111122 
TCOON,ioos:station:TCOON:076:1,2011-12-04T20:30:00Z,27.8918,-97.6105,0.0,4.8,1111122 
TCOON,ioos:station:TCOON:076:1,2011-12-04T21:00:00Z,27.8918,-97.6105,0.0,4.9,1111122 
TCOON,ioos:station:TCOON:076:1,2011-12-04T21:30:00Z,27.8918,-97.6105,0.0,5.0,1111122 
TCOON,ioos:station:TCOON:076:1,2011-12-04T23:00:00Z,27.8918,-97.6105,0.0,4.8,1111122 
TCOON,ioos:station:TCOON:076:1,2011-12-04T23:30:00Z,27.8918,-97.6105,0.0,4.9,1111122 
TCOON,ioos:station:TCOON:076:1,2011-12-05T00:30:00Z,27.8918,-97.6105,0.0,4.9,1111122 
TCOON,ioos:station:TCOON:076:1,2011-12-05T01:00:00Z,27.8918,-97.6105,0.0,5.1,1111122 
TCOON,ioos:station:TCOON:076:1,2011-12-05T01:30:00Z,27.8918,-97.6105,0.0,4.9,1111122 
TCOON,ioos:station:TCOON:076:1,2011-12-05T02:30:00Z,27.8918,-97.6105,0.0,4.6,1111122 
TCOON,ioos:station:TCOON:076:1,2011-12-05T03:00:00Z,27.8918,-97.6105,0.0,4.6,1111122 
TCOON,ioos:station:TCOON:076:1,2011-12-05T03:30:00Z,27.8918,-97.6105,0.0,4.9,1111122 
TCOON,ioos:station:TCOON:076:1,2011-12-05T04:00:00Z,27.8918,-97.6105,0.0,5.0,1111122 
TCOON,ioos:station:TCOON:076:1,2011-12-05T04:30:00Z,27.8918,-97.6105,0.0,5.4,1111122 
TCOON,ioos:station:TCOON:076:1,2011-12-05T05:00:00Z,27.8918,-97.6105,0.0,5.2,1111122 
TCOON,ioos:station:TCOON:076:1,2011-12-05T05:30:00Z,27.8918,-97.6105,0.0,4.7,1111122 
TCOON,ioos:station:TCOON:076:1,2011-12-05T06:30:00Z,27.8918,-97.6105,0.0,4.8,1111122 
TCOON,ioos:station:TCOON:076:1,2011-12-05T07:00:00Z,27.8918,-97.6105,0.0,4.6,1111122 
TCOON,ioos:station:TCOON:076:1,2011-12-05T07:30:00Z,27.8918,-97.6105,0.0,4.4,1111122 
TCOON,ioos:station:TCOON:076:1,2011-12-05T08:00:00Z,27.8918,-97.6105,0.0,4.4,1111122 
TCOON,ioos:station:TCOON:076:1,2011-12-05T08:30:00Z,27.8918,-97.6105,0.0,4.7,1111122 
TCOON,ioos:station:TCOON:076:1,2011-12-05T09:00:00Z,27.8918,-97.6105,0.0,4.8,1111122 
TCOON,ioos:station:TCOON:076:1,2011-12-05T09:30:00Z,27.8918,-97.6105,0.0,5.1,1111122 
TCOON,ioos:station:TCOON:076:1,2011-12-05T10:00:00Z,27.8918,-97.6105,0.0,4.3,1111122 
TCOON,ioos:station:TCOON:076:1,2011-12-05T10:30:00Z,27.8918,-97.6105,0.0,4.2,1111122 
TCOON,ioos:station:TCOON:076:1,2011-12-05T11:00:00Z,27.8918,-97.6105,0.0,4.2,1111122 
TCOON,ioos:station:TCOON:076:1,2011-12-05T11:30:00Z,27.8918,-97.6105,0.0,4.0,1111122 
TCOON,ioos:station:TCOON:076:1,2011-12-05T12:00:00Z,27.8918,-97.6105,0.0,4.0,1111122 
TCOON,ioos:station:TCOON:076:1,2011-12-05T12:30:00Z,27.8918,-97.6105,0.0,4.0,1111122 
TCOON,ioos:station:TCOON:076:1,2011-12-05T13:00:00Z,27.8918,-97.6105,0.0,4.0,1111122 
TCOON,ioos:station:TCOON:076:1,2011-12-05T13:30:00Z,27.8918,-97.6105,0.0,4.0,1111122 
TCOON,ioos:station:TCOON:076:1,2011-12-05T14:30:00Z,27.8918,-97.6105,0.0,4.0,1111122 
TCOON,ioos:station:TCOON:076:1,2011-12-05T15:00:00Z,27.8918,-97.6105,0.0,4.1,1111122 
TCOON,ioos:station:TCOON:076:1,2011-12-05T15:30:00Z,27.8918,-97.6105,0.0,4.1,1111122 
TCOON,ioos:station:TCOON:076:1,2011-12-05T16:00:00Z,27.8918,-97.6105,0.0,4.1,1111122 
TCOON,ioos:station:TCOON:076:1,2011-12-05T16:30:00Z,27.8918,-97.6105,0.0,4.1,1111122 
TCOON,ioos:station:TCOON:076:1,2011-12-05T17:00:00Z,27.8918,-97.6105,0.0,4.1,1111122 
TCOON,ioos:station:TCOON:076:1,2011-12-05T17:30:00Z,27.8918,-97.6105,0.0,4.0,1111122 
TCOON,ioos:station:TCOON:076:1,2011-12-05T18:00:00Z,27.8918,-97.6105,0.0,4.0,1111122 
TCOON,ioos:station:TCOON:076:1,2011-12-05T19:00:00Z,27.8918,-97.6105,0.0,4.1,1111122 
TCOON,ioos:station:TCOON:076:1,2011-12-05T19:30:00Z,27.8918,-97.6105,0.0,4.1,1111122 
TCOON,ioos:station:TCOON:076:1,2011-12-05T20:00:00Z,27.8918,-97.6105,0.0,4.2,1111122 
TCOON,ioos:station:TCOON:076:1,2011-12-05T21:00:00Z,27.8918,-97.6105,0.0,4.2,1111122 
TCOON,ioos:station:TCOON:076:1,2011-12-05T21:30:00Z,27.8918,-97.6105,0.0,4.2,1111122 
TCOON,ioos:station:TCOON:076:1,2011-12-05T22:00:00Z,27.8918,-97.6105,0.0,4.2,1111122 
TCOON,ioos:station:TCOON:076:1,2011-12-05T22:30:00Z,27.8918,-97.6105,0.0,4.3,1111122 
TCOON,ioos:station:TCOON:076:1,2011-12-05T23:00:00Z,27.8918,-97.6105,0.0,4.4,1111122 
TCOON,ioos:station:TCOON:076:1,2011-12-05T23:30:00Z,27.8918,-97.6105,0.0,4.6,1111122 
TCOON,ioos:station:TCOON:076:1,2011-12-06T00:00:00Z,27.8918,-97.6105,0.0,4.6,1111122 
TCOON,ioos:station:TCOON:076:1,2011-12-06T00:30:00Z,27.8918,-97.6105,0.0,4.9,1111122 
TCOON,ioos:station:TCOON:076:1,2011-12-06T01:00:00Z,27.8918,-97.6105,0.0,4.7,1111122 
TCOON,ioos:station:TCOON:076:1,2011-12-06T01:30:00Z,27.8918,-97.6105,0.0,5.5,1111122 
TCOON,ioos:station:TCOON:076:1,2011-12-06T02:00:00Z,27.8918,-97.6105,0.0,5.5,1111122 
TCOON,ioos:station:TCOON:076:1,2011-12-06T02:30:00Z,27.8918,-97.6105,0.0,5.5,1111122 
TCOON,ioos:station:TCOON:076:1,2011-12-06T03:30:00Z,27.8918,-97.6105,0.0,5.9,1111122 
TCOON,ioos:station:TCOON:076:1,2011-12-06T04:00:00Z,27.8918,-97.6105,0.0,5.8,1111122 
TCOON,ioos:station:TCOON:076:1,2011-12-06T04:30:00Z,27.8918,-97.6105,0.0,5.5,1111122 
TCOON,ioos:station:TCOON:076:1,2011-12-06T05:00:00Z,27.8918,-97.6105,0.0,5.4,1111122 
TCOON,ioos:station:TCOON:076:1,2011-12-06T05:30:00Z,27.8918,-97.6105,0.0,4.7,1111122 
TCOON,ioos:station:TCOON:076:1,2011-12-06T06:00:00Z,27.8918,-97.6105,0.0,4.7,1111122 
TCOON,ioos:station:TCOON:076:1,2011-12-06T06:30:00Z,27.8918,-97.6105,0.0,4.4,1111122 
TCOON,ioos:station:TCOON:076:1,2011-12-06T07:00:00Z,27.8918,-97.6105,0.0,4.5,1111122 
TCOON,ioos:station:TCOON:076:1,2011-12-06T07:30:00Z,27.8918,-97.6105,0.0,4.5,1111122 
TCOON,ioos:station:TCOON:076:1,2011-12-06T08:00:00Z,27.8918,-97.6105,0.0,4.5,1111122 
TCOON,ioos:station:TCOON:076:1,2011-12-06T08:30:00Z,27.8918,-97.6105,0.0,4.5,1111122 
TCOON,ioos:station:TCOON:076:1,2011-12-06T09:00:00Z,27.8918,-97.6105,0.0,4.5,1111122 
TCOON,ioos:station:TCOON:076:1,2011-12-06T09:30:00Z,27.8918,-97.6105,0.0,4.4,1111122 
TCOON,ioos:station:TCOON:076:1,2011-12-06T10:00:00Z,27.8918,-97.6105,0.0,4.5,1111122 
TCOON,ioos:station:TCOON:076:1,2011-12-06T10:30:00Z,27.8918,-97.6105,0.0,4.5,1111122 
TCOON,ioos:station:TCOON:076:1,2011-12-06T11:00:00Z,27.8918,-97.6105,0.0,4.5,1111122 
TCOON,ioos:station:TCOON:076:1,2011-12-06T11:30:00Z,27.8918,-97.6105,0.0,4.7,1111122 
TCOON,ioos:station:TCOON:076:1,2011-12-06T12:00:00Z,27.8918,-97.6105,0.0,4.7,1111122 
TCOON,ioos:station:TCOON:076:1,2011-12-06T12:30:00Z,27.8918,-97.6105,0.0,4.7,1111122 
TCOON,ioos:station:TCOON:076:1,2011-12-06T13:30:00Z,27.8918,-97.6105,0.0,4.7,1111122 
TCOON,ioos:station:TCOON:076:1,2011-12-06T14:30:00Z,27.8918,-97.6105,0.0,4.7,1111122 
TCOON,ioos:station:TCOON:076:1,2011-12-06T15:00:00Z,27.8918,-97.6105,0.0,4.7,1111122 
TCOON,ioos:station:TCOON:076:1,2011-12-06T17:30:00Z,27.8918,-97.6105,0.0,5.2,1111122 
TCOON,ioos:station:TCOON:076:1,2011-12-06T19:00:00Z,27.8918,-97.6105,0.0,5.3,1111122 
TCOON,ioos:station:TCOON:076:1,2011-12-06T19:30:00Z,27.8918,-97.6105,0.0,5.4,1111122 
TCOON,ioos:station:TCOON:076:1,2011-12-06T20:00:00Z,27.8918,-97.6105,0.0,5.4,1111122 
TCOON,ioos:station:TCOON:076:1,2011-12-06T21:00:00Z,27.8918,-97.6105,0.0,5.4,1111122 
TCOON,ioos:station:TCOON:076:1,2011-12-06T21:30:00Z,27.8918,-97.6105,0.0,5.4,1111122 
TCOON,ioos:station:TCOON:076:1,2011-12-06T22:00:00Z,27.8918,-97.6105,0.0,5.4,1111122 
TCOON,ioos:station:TCOON:076:1,2011-12-06T23:00:00Z,27.8918,-97.6105,0.0,5.4,1111122 
TCOON,ioos:station:TCOON:076:1,2011-12-06T23:30:00Z,27.8918,-97.6105,0.0,5.4,1111122 
TCOON,ioos:station:TCOON:076:1,2011-12-07T00:30:00Z,27.8918,-97.6105,0.0,5.4,1111122 
TCOON,ioos:station:TCOON:076:1,2011-12-07T01:00:00Z,27.8918,-97.6105,0.0,5.4,1111122 
TCOON,ioos:station:TCOON:076:1,2011-12-07T01:30:00Z,27.8918,-97.6105,0.0,5.5,1111122 
TCOON,ioos:station:TCOON:076:1,2011-12-07T02:00:00Z,27.8918,-97.6105,0.0,5.7,1111122 
TCOON,ioos:station:TCOON:076:1,2011-12-07T02:30:00Z,27.8918,-97.6105,0.0,6.2,1111122 
TCOON,ioos:station:TCOON:076:1,2011-12-07T03:00:00Z,27.8918,-97.6105,0.0,6.3,1111122 
TCOON,ioos:station:TCOON:076:1,2011-12-07T03:30:00Z,27.8918,-97.6105,0.0,6.3,1111122 
TCOON,ioos:station:TCOON:076:1,2011-12-07T04:00:00Z,27.8918,-97.6105,0.0,6.6,1111122 
TCOON,ioos:station:TCOON:076:1,2011-12-07T04:30:00Z,27.8918,-97.6105,0.0,6.2,1111122 
TCOON,ioos:station:TCOON:076:1,2011-12-07T05:00:00Z,27.8918,-97.6105,0.0,6.2,1111122 
TCOON,ioos:station:TCOON:076:1,2011-12-07T05:30:00Z,27.8918,-97.6105,0.0,6.2,1111122 
TCOON,ioos:station:TCOON:076:1,2011-12-07T06:00:00Z,27.8918,-97.6105,0.0,6.3,1111122 
TCOON,ioos:station:TCOON:076:1,2011-12-07T06:30:00Z,27.8918,-97.6105,0.0,6.1,1111122 
TCOON,ioos:station:TCOON:076:1,2011-12-07T07:00:00Z,27.8918,-97.6105,0.0,5.3,1111122 
TCOON,ioos:station:TCOON:076:1,2011-12-07T07:30:00Z,27.8918,-97.6105,0.0,5.6,1111122 
TCOON,ioos:station:TCOON:076:1,2011-12-07T08:00:00Z,27.8918,-97.6105,0.0,5.6,1111122 
TCOON,ioos:station:TCOON:076:1,2011-12-07T08:30:00Z,27.8918,-97.6105,0.0,5.6,1111122 
TCOON,ioos:station:TCOON:076:1,2011-12-07T10:00:00Z,27.8918,-97.6105,0.0,5.2,1111122 
TCOON,ioos:station:TCOON:076:1,2011-12-07T10:30:00Z,27.8918,-97.6105,0.0,5.3,1111122 
TCOON,ioos:station:TCOON:076:1,2011-12-07T11:00:00Z,27.8918,-97.6105,0.0,5.4,1111122 
TCOON,ioos:station:TCOON:076:1,2011-12-07T12:00:00Z,27.8918,-97.6105,0.0,5.2,1111122 
TCOON,ioos:station:TCOON:076:1,2011-12-07T12:30:00Z,27.8918,-97.6105,0.0,5.2,1111122 
TCOON,ioos:station:TCOON:076:1,2011-12-07T13:00:00Z,27.8918,-97.6105,0.0,5.1,1111122 
TCOON,ioos:station:TCOON:076:1,2011-12-07T13:30:00Z,27.8918,-97.6105,0.0,5.0,1111122 
TCOON,ioos:station:TCOON:076:1,2011-12-07T14:00:00Z,27.8918,-97.6105,0.0,4.9,1111122 
TCOON,ioos:station:TCOON:076:1,2011-12-07T14:30:00Z,27.8918,-97.6105,0.0,4.8,1111122 
TCOON,ioos:station:TCOON:076:1,2011-12-07T15:00:00Z,27.8918,-97.6105,0.0,4.5,1111122 
TCOON,ioos:station:TCOON:076:1,2011-12-07T15:30:00Z,27.8918,-97.6105,0.0,4.3,1111122 
TCOON,ioos:station:TCOON:076:1,2011-12-07T16:00:00Z,27.8918,-97.6105,0.0,4.2,1111122 
TCOON,ioos:station:TCOON:076:1,2011-12-07T16:30:00Z,27.8918,-97.6105,0.0,4.2,1111122 
TCOON,ioos:station:TCOON:076:1,2011-12-07T17:00:00Z,27.8918,-97.6105,0.0,3.8,1111122 
TCOON,ioos:station:TCOON:076:1,2011-12-07T17:30:00Z,27.8918,-97.6105,0.0,4.3,1111122 
TCOON,ioos:station:TCOON:076:1,2011-12-07T18:00:00Z,27.8918,-97.6105,0.0,4.5,1111122 
TCOON,ioos:station:TCOON:076:1,2011-12-07T18:30:00Z,27.8918,-97.6105,0.0,4.7,1111122 
TCOON,ioos:station:TCOON:076:1,2011-12-07T19:00:00Z,27.8918,-97.6105,0.0,4.0,1111122 
TCOON,ioos:station:TCOON:076:1,2011-12-07T19:30:00Z,27.8918,-97.6105,0.0,4.7,1111122 
TCOON,ioos:station:TCOON:076:1,2011-12-07T20:30:00Z,27.8918,-97.6105,0.0,3.6,1111122 
TCOON,ioos:station:TCOON:076:1,2011-12-07T21:00:00Z,27.8918,-97.6105,0.0,3.8,1111122 
TCOON,ioos:station:TCOON:076:1,2011-12-07T21:30:00Z,27.8918,-97.6105,0.0,3.5,1111122 
TCOON,ioos:station:TCOON:076:1,2011-12-07T22:00:00Z,27.8918,-97.6105,0.0,3.5,1111122 
TCOON,ioos:station:TCOON:076:1,2011-12-07T22:30:00Z,27.8918,-97.6105,0.0,3.5,1111122 